"startDT [UTC]","vpos","CH4 [ppm]","stdev(CH4) [ppm]","CO2 [ppm]","stdev(CO2) [ppm]","H2O [ppm]","stdev(H2O)","p_LGR [torr]","T_LGR [C]","mt1_LGR [us]","mt2_LGR [us]","T_ECpre [C]","T_EC1 [C]","T_EC2 [C]","p_inlet [hPa]","p_in [hPa]","p_out [hPa]","T_inlet [C]","RH_inlet [%]","dwpt_inlet [C]","T_vent [C]","RH_vent [%]","dwpt_vent [C]","flow_vent [l min-1]","flow_inlet [l min-1]","dwpt_sample [C]","T_room [C]"
2013-02-27 00:00:00,0.0,1.9763,0.0009,407.15,0.35,-1.0,0.0,138.09,29.50,24.65,36.40,0.04,-272.75,-272.75,-48,556,-931,22.7,0.5,-42.4,22.9,0.6,-41.8,5.73,2.37,-36.5,27.7
2013-02-27 00:01:00,0.0,1.9763,0.0011,407.12,0.30,-1.0,0.0,138.09,29.49,24.66,36.40,0.04,-272.75,-272.75,-48,555,-931,22.7,0.5,-42.4,22.8,0.5,-41.9,5.73,2.37,-36.7,27.5
2013-02-27 00:02:00,0.0,1.9768,0.0009,406.99,0.31,-1.0,0.0,138.10,29.48,24.65,36.41,0.04,-272.75,-272.75,-48,555,-931,22.6,0.5,-42.2,22.7,0.6,-41.7,5.73,2.37,-36.9,27.1
2013-02-27 00:03:00,0.0,1.9767,0.0011,407.15,0.30,-1.0,0.0,138.10,29.46,24.65,36.40,0.04,-272.75,-272.75,-48,554,-931,22.6,0.6,-42.0,22.7,0.6,-41.5,5.73,2.37,-37.1,27.0
2013-02-27 00:04:00,0.0,1.9772,0.0010,407.18,0.29,-1.0,0.0,138.11,29.45,24.65,36.40,0.04,-272.75,-272.75,-48,554,-931,22.5,0.6,-41.9,22.6,0.6,-41.6,5.73,2.37,-37.3,26.7
2013-02-27 00:05:00,0.0,1.9766,0.0010,407.04,0.31,-1.0,0.0,138.11,29.43,24.65,36.40,0.04,-272.76,-272.75,-48,554,-931,22.5,0.6,-41.9,22.5,0.6,-41.5,5.73,2.38,-37.4,26.5
2013-02-27 00:06:00,0.0,1.9765,0.0010,406.99,0.26,-1.0,0.0,138.11,29.41,24.65,36.40,0.04,-272.75,-272.75,-48,553,-931,22.5,0.6,-42.0,22.5,0.6,-41.6,5.73,2.38,-37.6,26.4
2013-02-27 00:07:00,0.0,1.9773,0.0013,407.00,0.31,-1.0,0.0,138.11,29.39,24.65,36.41,0.04,-272.75,-272.75,-48,553,-930,22.4,0.5,-42.4,22.4,0.6,-41.7,5.73,2.40,-37.7,26.3
2013-02-27 00:08:00,0.0,1.9766,0.0012,407.20,0.25,-1.0,0.0,138.12,29.37,24.65,36.40,0.04,-272.75,-272.76,-48,553,-930,22.4,0.5,-42.4,22.3,0.6,-42.1,5.73,2.41,-37.8,26.2
2013-02-27 00:09:00,0.0,1.9766,0.0011,407.14,0.29,-1.0,0.0,138.12,29.35,24.65,36.41,0.04,-272.75,-272.76,-48,552,-930,22.4,0.5,-42.5,22.3,0.6,-42.1,5.73,2.41,-37.9,26.0
2013-02-27 00:10:00,0.0,1.9766,0.0009,407.19,0.36,-1.0,0.0,138.12,29.33,24.65,36.40,0.04,-272.76,-272.75,-48,552,-930,22.3,0.5,-42.4,22.2,0.5,-42.2,5.73,2.41,-38.0,26.0
2013-02-27 00:11:00,0.0,1.9756,0.0010,407.22,0.28,-1.0,0.0,138.12,29.30,24.65,36.40,0.04,-272.75,-272.75,-48,552,-930,22.3,0.5,-42.6,22.2,0.6,-42.1,5.73,2.39,-38.1,25.7
2013-02-27 00:12:00,0.0,1.9758,0.0010,407.20,0.30,-1.0,0.0,138.12,29.28,24.65,36.40,0.04,-272.76,-272.75,-48,551,-930,22.2,0.5,-42.5,22.1,0.6,-42.2,5.73,2.37,-38.1,25.7
2013-02-27 00:13:00,0.0,1.9758,0.0011,407.28,0.30,-1.0,0.0,138.12,29.26,24.65,36.40,0.04,-272.76,-272.76,-48,551,-930,22.2,0.5,-42.5,22.0,0.6,-42.2,5.73,2.35,-38.2,25.6
2013-02-27 00:14:00,0.0,1.9750,0.0009,407.22,0.26,-1.0,0.0,138.13,29.24,24.65,36.40,0.04,-272.74,-272.75,-48,551,-930,22.2,0.5,-42.4,22.0,0.6,-42.0,5.73,2.35,-38.3,25.6
2013-02-27 00:15:00,0.0,1.9745,0.0011,407.15,0.31,-1.0,0.0,138.13,29.21,24.65,36.40,0.04,-272.75,-272.76,-49,551,-931,22.1,0.6,-42.0,21.9,0.6,-41.8,5.73,2.37,-38.3,25.7
2013-02-27 00:16:00,0.0,1.9743,0.0011,407.23,0.25,-1.0,0.0,138.13,29.19,24.65,36.40,0.04,-272.75,-272.75,-48,550,-929,22.1,0.6,-42.1,21.9,0.6,-41.4,5.73,2.41,-38.3,25.7
2013-02-27 00:17:00,0.0,1.9742,0.0009,407.26,0.27,-1.0,0.0,138.13,29.17,24.65,36.40,0.04,-272.76,-272.76,-48,550,-929,22.1,0.6,-41.6,21.9,0.6,-41.5,5.73,2.43,-38.4,25.7
2013-02-27 00:18:00,0.0,1.9737,0.0009,407.25,0.24,-1.0,0.0,138.13,29.14,24.65,36.39,0.04,-272.75,-272.76,-48,550,-929,22.0,0.6,-41.6,21.8,0.6,-41.1,5.73,2.42,-38.4,25.6
2013-02-27 00:19:00,0.0,1.9733,0.0010,407.14,0.27,-1.0,0.0,138.13,29.12,24.65,36.40,0.04,-272.76,-272.76,-48,550,-929,22.0,0.6,-41.4,21.8,0.6,-41.1,5.73,2.38,-38.4,25.6
2013-02-27 00:20:00,0.0,1.9735,0.0010,407.19,0.27,-1.0,0.0,138.13,29.10,24.65,36.40,0.04,-272.75,-272.76,-48,550,-929,22.0,0.6,-41.2,21.7,0.6,-41.0,5.73,2.34,-38.4,25.4
2013-02-27 00:21:00,0.0,1.9730,0.0010,407.23,0.28,-1.0,0.0,138.13,29.08,24.65,36.39,0.04,-272.75,-272.76,-48,549,-930,21.9,0.6,-41.2,21.7,0.7,-40.7,5.73,2.35,-38.4,25.5
2013-02-27 00:22:00,0.0,1.9730,0.0010,407.14,0.26,-1.0,0.0,138.13,29.06,24.65,36.39,0.04,-272.76,-272.76,-48,549,-929,21.9,0.6,-41.0,21.6,0.7,-40.7,5.73,2.39,-38.4,25.5
2013-02-27 00:23:00,0.0,1.9727,0.0009,407.02,0.25,-1.0,0.0,138.13,29.04,24.65,36.40,0.04,-272.76,-272.75,-48,549,-929,21.8,0.6,-40.9,21.6,0.7,-40.6,5.73,2.44,-38.5,25.5
2013-02-27 00:24:00,0.0,1.9725,0.0011,407.12,0.26,-1.0,0.0,138.13,29.02,24.65,36.39,0.04,-272.76,-272.75,-48,549,-928,21.8,0.6,-40.9,21.5,0.7,-40.3,5.73,2.42,-38.4,25.4
2013-02-27 00:25:00,0.0,1.9726,0.0011,407.18,0.34,-1.0,0.0,138.13,29.00,24.65,36.39,0.04,-272.75,-272.75,-48,548,-929,21.8,0.6,-41.0,21.5,0.7,-40.3,5.73,2.36,-38.5,25.5
2013-02-27 00:26:00,0.0,1.9726,0.0008,407.18,0.28,-1.0,0.0,138.14,28.98,24.65,36.39,0.04,-272.75,-272.75,-47,548,-929,21.7,0.6,-41.0,21.4,0.7,-40.4,5.73,2.33,-38.5,25.4
2013-02-27 00:27:00,0.0,1.9724,0.0010,407.22,0.24,-1.0,0.0,138.14,28.95,24.65,36.39,0.04,-272.75,-272.75,-47,548,-929,21.7,0.6,-41.1,21.4,0.7,-40.5,5.73,2.37,-38.5,25.5
2013-02-27 00:28:00,0.0,1.9730,0.0009,407.18,0.25,-1.0,0.0,138.14,28.93,24.65,36.38,0.04,-272.75,-272.75,-48,548,-928,21.6,0.7,-40.9,21.4,0.7,-40.7,5.73,2.43,-38.5,25.7
2013-02-27 00:29:00,0.0,1.9723,0.0009,407.09,0.28,-1.0,0.0,138.14,28.91,24.65,36.39,0.04,-272.76,-272.76,-48,548,-928,21.6,0.6,-41.0,21.3,0.7,-40.9,5.73,2.43,-38.3,26.0
2013-02-27 00:30:00,0.0,1.9725,0.0010,407.21,0.25,-1.0,0.0,138.14,28.89,24.65,36.39,0.04,-272.75,-272.76,-47,548,-929,21.6,0.6,-41.0,21.4,0.7,-40.8,5.73,2.37,-38.2,26.1
2013-02-27 00:31:00,0.0,1.9730,0.0010,407.10,0.30,-1.0,0.0,138.13,28.88,24.65,36.39,0.04,-272.75,-272.76,-47,548,-929,21.6,0.6,-41.3,21.4,0.7,-40.7,5.73,2.33,-38.1,26.2
2013-02-27 00:32:00,0.0,1.9735,0.0011,407.26,0.26,-1.0,0.0,138.13,28.87,24.64,36.38,0.04,-272.76,-272.76,-47,548,-928,21.6,0.7,-40.7,21.5,0.7,-40.2,5.73,2.35,-37.9,26.3
2013-02-27 00:33:00,0.0,1.9735,0.0010,407.17,0.30,-1.0,0.0,138.13,28.85,24.65,36.39,0.04,-272.75,-272.76,-48,548,-928,21.6,0.6,-41.0,21.5,0.7,-40.5,5.73,2.38,-37.8,26.4
2013-02-27 00:34:00,0.0,1.9739,0.0012,407.22,0.24,-1.0,0.0,138.13,28.84,24.64,36.39,0.04,-272.75,-272.75,-47,548,-929,21.7,0.6,-41.4,21.5,0.7,-40.7,5.73,2.41,-37.8,26.5
2013-02-27 00:35:00,0.0,1.9737,0.0011,407.26,0.25,-1.0,0.0,138.13,28.83,24.65,36.38,0.04,-272.75,-272.76,-47,548,-929,21.7,0.6,-41.1,21.5,0.7,-40.5,5.73,2.42,-37.7,26.5
2013-02-27 00:36:00,0.0,1.9745,0.0012,407.18,0.27,-1.0,0.0,138.13,28.82,24.64,36.39,0.04,-272.76,-272.75,-47,549,-928,21.7,0.6,-40.9,21.5,0.7,-40.7,5.73,2.40,-37.7,26.6
2013-02-27 00:37:00,0.0,1.9746,0.0011,407.21,0.25,-1.0,0.0,138.12,28.81,24.65,36.39,0.04,-272.75,-272.75,-47,549,-928,21.7,0.7,-40.9,21.6,0.7,-40.6,5.73,2.37,-37.7,26.6
2013-02-27 00:38:00,0.0,1.9749,0.0009,407.26,0.23,-1.0,0.0,138.12,28.80,24.65,36.39,0.04,-272.75,-272.75,-47,549,-929,21.7,0.6,-41.0,21.6,0.7,-40.3,5.73,2.34,-37.7,26.7
2013-02-27 00:39:00,0.0,1.9755,0.0008,407.33,0.23,-1.0,0.0,138.12,28.79,24.64,36.38,0.04,-272.75,-272.75,-47,549,-929,21.7,0.7,-40.8,21.6,0.7,-40.3,5.73,2.34,-37.7,26.7
2013-02-27 00:40:00,0.0,1.9759,0.0011,407.37,0.28,-1.0,0.0,138.12,28.78,24.64,36.39,0.04,-272.75,-272.76,-47,549,-928,21.7,0.6,-41.0,21.6,0.7,-40.3,5.73,2.36,-37.7,26.7
2013-02-27 00:41:00,0.0,1.9755,0.0009,407.26,0.28,-1.0,0.0,138.12,28.77,24.65,36.38,0.04,-272.75,-272.76,-47,549,-928,21.7,0.7,-40.8,21.6,0.7,-40.3,5.73,2.38,-37.0,26.8
2013-02-27 00:42:00,0.0,1.9764,0.0011,407.19,0.26,-1.0,0.0,138.12,28.77,24.64,36.39,0.04,-272.75,-272.76,-47,549,-929,21.7,0.7,-40.7,21.7,0.7,-40.2,5.73,2.40,-36.5,26.8
2013-02-27 00:43:00,0.0,1.9764,0.0011,407.27,0.23,-1.0,0.0,138.12,28.77,24.64,36.39,0.04,-272.75,-272.75,-47,549,-928,21.8,0.6,-40.9,21.7,0.7,-40.2,5.73,2.40,-36.5,26.8
2013-02-27 00:44:00,0.0,1.9762,0.0010,407.27,0.25,-1.0,0.0,138.12,28.76,24.65,36.39,0.04,-272.75,-272.76,-47,549,-928,21.8,0.6,-41.0,21.7,0.7,-40.3,5.73,2.40,-36.5,26.8
2013-02-27 00:45:00,0.0,1.9766,0.0011,407.26,0.33,-1.0,0.0,138.12,28.75,24.65,36.38,0.04,-272.75,-272.75,-47,550,-929,21.8,0.6,-40.9,21.7,0.7,-40.2,5.73,2.40,-36.4,26.8
2013-02-27 00:46:00,0.0,1.9767,0.0010,407.35,0.30,-1.0,0.0,138.12,28.74,24.65,36.38,0.04,-272.75,-272.76,-47,550,-929,21.8,0.6,-41.0,21.7,0.7,-40.2,5.73,2.38,-36.4,26.9
2013-02-27 00:47:00,0.0,1.9771,0.0009,407.39,0.22,-1.0,0.0,138.12,28.74,24.65,36.38,0.04,-272.76,-272.76,-47,550,-929,21.8,0.6,-41.0,21.7,0.7,-40.3,5.73,2.37,-36.3,26.9
2013-02-27 00:48:00,0.0,1.9773,0.0010,407.39,0.24,-1.0,0.0,138.11,28.74,24.64,36.38,0.04,-272.75,-272.75,-47,550,-928,21.8,0.6,-40.9,21.8,0.7,-40.2,5.73,2.36,-36.3,26.9
2013-02-27 00:49:00,0.0,1.9772,0.0012,407.36,0.30,-1.0,0.0,138.11,28.73,24.65,36.38,0.04,-272.75,-272.76,-47,550,-929,21.8,0.6,-40.9,21.8,0.7,-40.2,5.73,2.36,-36.3,27.0
2013-02-27 00:50:00,0.0,1.9775,0.0009,407.33,0.29,-1.0,0.0,138.11,28.73,24.65,36.38,0.04,-272.75,-272.75,-47,550,-929,21.8,0.7,-40.7,21.8,0.7,-40.3,5.73,2.36,-36.2,27.0
2013-02-27 00:51:00,0.0,1.9776,0.0013,407.29,0.26,-1.0,0.0,138.11,28.72,24.65,36.39,0.04,-272.75,-272.76,-47,550,-929,21.9,0.7,-40.5,21.8,0.7,-40.1,5.73,2.36,-36.2,27.0
2013-02-27 00:52:00,0.0,1.9777,0.0011,407.21,0.23,-1.0,0.0,138.11,28.72,24.65,36.39,0.04,-272.75,-272.76,-47,551,-929,21.9,0.7,-40.5,21.8,0.7,-40.2,5.73,2.37,-36.2,27.0
2013-02-27 00:53:00,0.0,1.9775,0.0009,407.19,0.29,-1.0,0.0,138.11,28.71,24.65,36.38,0.04,-272.76,-272.76,-47,551,-929,21.9,0.7,-40.5,21.8,0.7,-40.1,5.73,2.37,-36.2,27.0
2013-02-27 00:54:00,0.0,1.9779,0.0010,407.24,0.27,-1.0,0.0,138.11,28.71,24.65,36.38,0.04,-272.76,-272.75,-47,551,-929,21.9,0.6,-40.9,21.9,0.7,-40.1,5.73,2.38,-36.1,27.1
2013-02-27 00:55:00,0.0,1.9778,0.0011,407.23,0.29,-1.0,0.0,138.11,28.71,24.65,36.39,0.04,-272.76,-272.75,-47,551,-929,21.9,0.6,-41.0,21.9,0.7,-40.5,5.73,2.37,-36.0,27.1
2013-02-27 00:56:00,0.0,1.9780,0.0009,407.21,0.28,-1.0,0.0,138.11,28.70,24.65,36.38,0.04,-272.76,-272.75,-47,551,-929,21.9,0.6,-41.3,21.9,0.6,-40.9,5.73,2.38,-36.1,27.1
2013-02-27 00:57:00,0.0,1.9781,0.0013,407.29,0.28,-1.0,0.0,138.11,28.69,24.65,36.38,0.04,-272.75,-272.76,-47,551,-929,21.9,0.6,-41.5,21.9,0.6,-40.9,5.73,2.38,-36.1,27.1
2013-02-27 00:58:00,0.0,1.9781,0.0010,407.29,0.25,-1.0,0.0,138.11,28.69,24.65,36.38,0.04,-272.75,-272.76,-47,551,-929,21.9,0.6,-41.7,21.9,0.6,-40.9,5.73,2.38,-36.0,27.2
2013-02-27 00:59:00,0.0,1.9782,0.0008,407.24,0.26,-1.0,0.0,138.11,28.68,24.65,36.38,0.04,-272.75,-272.76,-47,552,-929,22.0,0.6,-41.6,21.9,0.6,-40.9,5.73,2.39,-36.0,27.2
2013-02-27 01:00:00,0.0,1.9783,0.0010,407.15,0.30,-1.0,0.0,138.11,28.68,24.64,36.39,0.04,-272.75,-272.76,-47,552,-929,22.0,0.6,-41.7,21.9,0.6,-41.0,5.73,2.39,-36.0,27.2
2013-02-27 01:01:00,0.0,1.9782,0.0010,407.26,0.30,-1.0,0.0,138.11,28.68,24.65,36.38,0.04,-272.76,-272.76,-47,552,-929,22.0,0.6,-41.7,22.0,0.6,-40.9,5.73,2.39,-36.0,27.2
2013-02-27 01:02:00,0.0,1.9784,0.0008,407.36,0.27,-1.0,0.0,138.11,28.67,24.65,36.38,0.04,-272.76,-272.76,-47,552,-929,22.0,0.6,-41.7,22.0,0.6,-40.9,5.73,2.38,-36.0,27.2
2013-02-27 01:03:00,0.0,1.9785,0.0010,407.26,0.27,-1.0,0.0,138.11,28.67,24.64,36.38,0.04,-272.75,-272.75,-47,552,-929,22.0,0.6,-41.7,22.0,0.6,-41.0,5.73,2.38,-35.9,27.3
2013-02-27 01:04:00,0.0,1.9782,0.0009,407.24,0.22,-1.0,0.0,138.11,28.66,24.65,36.38,0.04,-272.75,-272.75,-47,552,-930,22.0,0.6,-41.7,22.0,0.6,-41.0,5.73,2.38,-35.9,27.3
2013-02-27 01:05:00,0.0,1.9784,0.0010,407.20,0.28,-1.0,0.0,138.11,28.66,24.65,36.38,0.04,-272.76,-272.75,-47,552,-929,22.0,0.6,-41.6,22.0,0.6,-40.9,5.73,2.38,-35.9,27.3
2013-02-27 01:06:00,0.0,1.9786,0.0010,407.22,0.26,-1.0,0.0,138.11,28.65,24.65,36.38,0.04,-272.76,-272.76,-47,552,-929,22.0,0.6,-41.7,22.0,0.6,-40.9,5.73,2.38,-35.9,27.3
2013-02-27 01:07:00,0.0,1.9786,0.0010,407.23,0.24,-1.0,0.0,138.11,28.65,24.65,36.38,0.04,-272.76,-272.76,-47,553,-929,22.0,0.6,-41.7,22.0,0.6,-40.9,5.73,2.38,-35.9,27.3
2013-02-27 01:08:00,0.0,1.9789,0.0012,407.31,0.28,-1.0,0.0,138.11,28.65,24.64,36.38,0.04,-272.75,-272.76,-47,553,-929,22.0,0.6,-41.6,22.1,0.6,-40.8,5.73,2.37,-35.8,27.4
2013-02-27 01:09:00,0.0,1.9788,0.0009,407.28,0.26,-1.0,0.0,138.10,28.65,24.64,36.39,0.04,-272.75,-272.75,-47,553,-930,22.0,0.6,-41.6,22.1,0.6,-40.9,5.73,2.38,-35.8,27.4
2013-02-27 01:10:00,0.0,1.9787,0.0011,407.26,0.26,-1.0,0.0,138.11,28.65,24.65,36.38,0.04,-272.75,-272.76,-47,553,-930,22.1,0.6,-41.7,22.1,0.6,-40.9,5.73,2.38,-35.8,27.4
2013-02-27 01:11:00,0.0,1.9794,0.0010,407.32,0.30,-1.0,0.0,138.11,28.65,24.64,36.38,0.04,-272.75,-272.75,-47,553,-929,22.1,0.6,-41.6,22.0,0.6,-40.9,5.73,2.38,-35.8,27.4
2013-02-27 01:12:00,0.0,1.9790,0.0010,407.35,0.26,-1.0,0.0,138.11,28.64,24.65,36.38,0.04,-272.75,-272.76,-47,553,-929,22.1,0.6,-41.7,22.1,0.6,-40.9,5.73,2.38,-35.8,27.4
2013-02-27 01:13:00,0.0,1.9790,0.0009,407.31,0.33,-1.0,0.0,138.10,28.64,24.65,36.38,0.04,-272.75,-272.75,-47,553,-929,22.1,0.6,-41.7,22.1,0.6,-40.9,5.73,2.37,-35.8,27.4
2013-02-27 01:14:00,0.0,1.9792,0.0009,407.34,0.29,-1.0,0.0,138.10,28.64,24.65,36.38,0.04,-272.75,-272.76,-47,553,-930,22.1,0.6,-41.7,22.1,0.6,-40.9,5.73,2.38,-35.8,27.4
2013-02-27 01:15:00,0.0,1.9792,0.0009,407.37,0.28,-1.0,0.0,138.10,28.64,24.64,36.38,0.04,-272.75,-272.75,-47,553,-930,22.1,0.6,-41.7,22.1,0.6,-40.8,5.73,2.37,-35.7,27.5
2013-02-27 01:16:00,0.0,1.9791,0.0009,407.30,0.31,-1.0,0.0,138.10,28.64,24.65,36.38,0.04,-272.76,-272.75,-47,553,-930,22.1,0.6,-41.4,22.1,0.6,-40.9,5.73,2.38,-35.7,27.5
2013-02-27 01:17:00,0.0,1.9792,0.0010,407.38,0.33,-1.0,0.0,138.10,28.64,24.64,36.38,0.04,-272.75,-272.76,-47,553,-929,22.1,0.6,-41.2,22.1,0.6,-40.8,5.73,2.37,-35.7,27.5
2013-02-27 01:18:00,0.0,1.9793,0.0013,407.34,0.29,-1.0,0.0,138.10,28.64,24.65,36.38,0.04,-272.75,-272.75,-48,554,-929,22.2,0.6,-41.2,22.1,0.7,-40.5,5.73,2.37,-35.7,27.5
2013-02-27 01:19:00,0.0,1.9789,0.0011,407.26,0.26,-1.0,0.0,138.10,28.64,24.65,36.38,0.04,-272.76,-272.75,-47,554,-929,22.2,0.6,-41.2,22.2,0.7,-40.4,5.73,2.37,-35.7,27.5
2013-02-27 01:20:00,0.0,1.9790,0.0009,407.21,0.26,-1.0,0.0,138.10,28.64,24.65,36.38,0.04,-272.75,-272.76,-46,555,-930,22.2,0.6,-40.8,22.2,0.7,-40.4,5.73,2.37,-35.7,27.5
2013-02-27 01:21:00,0.0,1.9793,0.0010,407.28,0.25,-1.0,0.0,138.10,28.64,24.65,36.38,0.04,-272.75,-272.76,-48,556,-929,22.2,0.6,-40.8,22.2,0.7,-40.3,5.73,2.37,-35.7,27.6
2013-02-27 01:22:00,0.0,1.9793,0.0012,407.23,0.29,-1.0,0.0,138.10,28.63,24.64,36.38,0.04,-272.76,-272.75,-48,554,-929,22.2,0.6,-40.7,22.2,0.7,-40.0,5.73,2.37,-35.7,27.5
2013-02-27 01:23:00,0.0,1.9789,0.0009,407.25,0.29,-1.0,0.0,138.10,28.63,24.65,36.39,0.04,-272.75,-272.75,-48,554,-929,22.2,0.7,-40.6,22.2,0.7,-40.1,5.73,2.37,-35.6,27.6
2013-02-27 01:24:00,0.0,1.9797,0.0012,407.44,0.26,-1.0,0.0,138.10,28.63,24.64,36.38,0.04,-272.75,-272.75,-47,554,-930,22.2,0.7,-40.2,22.3,0.7,-40.0,5.73,2.37,-35.6,27.6
2013-02-27 01:25:00,0.0,1.9795,0.0010,407.29,0.25,-1.0,0.0,138.10,28.63,24.65,36.39,0.04,-272.75,-272.75,-47,554,-930,22.3,0.7,-40.3,22.3,0.7,-39.7,5.73,2.38,-35.6,27.6
2013-02-27 01:26:00,0.0,1.9796,0.0011,407.36,0.26,-1.0,0.0,138.10,28.63,24.65,36.39,0.04,-272.75,-272.75,-47,554,-930,22.3,0.7,-39.9,22.3,0.7,-39.6,5.73,2.38,-35.6,27.6
2013-02-27 01:27:00,0.0,1.9798,0.0009,407.45,0.27,-1.0,0.0,138.10,28.64,24.64,36.38,0.04,-272.75,-272.76,-47,554,-929,22.3,0.7,-39.9,22.3,0.7,-39.4,5.73,2.38,-35.6,27.6
2013-02-27 01:28:00,0.0,1.9797,0.0011,407.37,0.30,-1.0,0.0,138.10,28.64,24.65,36.39,0.04,-272.75,-272.75,-48,554,-930,22.3,0.7,-39.8,22.3,0.7,-39.2,5.73,2.37,-35.6,27.7
2013-02-27 01:29:00,0.0,1.9797,0.0010,407.39,0.27,-1.0,0.0,138.10,28.64,24.65,36.39,0.04,-272.75,-272.75,-47,554,-930,22.3,0.7,-39.5,22.3,0.8,-39.2,5.73,2.37,-35.6,27.7
2013-02-27 01:30:00,0.0,1.9802,0.0009,407.42,0.30,-1.0,0.0,138.10,28.64,24.64,36.38,0.04,-272.75,-272.75,-48,555,-930,22.3,0.7,-39.6,22.3,0.7,-39.4,5.73,2.37,-35.6,27.7
2013-02-27 01:31:00,0.0,1.9798,0.0012,407.32,0.25,-1.0,0.0,138.10,28.64,24.65,36.39,0.04,-272.76,-272.75,-48,554,-930,22.4,0.7,-39.5,22.3,0.8,-39.0,5.73,2.37,-35.5,27.7
2013-02-27 01:32:00,0.0,1.9802,0.0009,407.38,0.27,-1.0,0.0,138.10,28.64,24.64,36.39,0.04,-272.76,-272.75,-45,555,-929,22.4,0.7,-39.5,22.3,0.8,-38.9,5.73,2.37,-35.5,27.7
2013-02-27 01:33:00,0.0,1.9800,0.0009,407.34,0.28,-1.0,0.0,138.10,28.63,24.65,36.39,0.04,-272.75,-272.76,-45,556,-930,22.4,0.7,-39.6,22.3,0.8,-38.8,5.73,2.37,-35.5,27.7
2013-02-27 01:34:00,0.0,1.9796,0.0010,407.34,0.25,-1.0,0.0,138.10,28.63,24.65,36.39,0.04,-272.76,-272.75,-47,554,-931,22.4,0.7,-39.6,22.4,0.8,-38.8,5.73,2.37,-35.5,27.7
2013-02-27 01:35:00,0.0,1.9792,0.0011,407.41,0.29,-1.0,0.0,138.10,28.63,24.65,36.38,0.04,-272.75,-272.76,-47,555,-930,22.4,0.7,-39.6,22.4,0.8,-38.9,5.73,2.37,-35.5,27.7
2013-02-27 01:36:00,0.0,1.9798,0.0009,407.36,0.23,-1.0,0.0,138.10,28.63,24.64,36.38,0.04,-272.75,-272.75,-48,555,-930,22.4,0.7,-39.6,22.4,0.8,-38.8,5.73,2.38,-35.5,27.7
2013-02-27 01:37:00,0.0,1.9799,0.0010,407.42,0.32,-1.0,0.0,138.10,28.63,24.64,36.38,0.04,-272.75,-272.75,-48,555,-930,22.4,0.7,-39.3,22.4,0.8,-38.9,5.73,2.38,-35.4,27.7
2013-02-27 01:38:00,0.0,1.9794,0.0010,407.38,0.29,-1.0,0.0,138.10,28.64,24.65,36.38,0.04,-272.75,-272.75,-48,555,-930,22.4,0.8,-39.1,22.4,0.8,-38.9,5.73,2.38,-35.4,27.7
2013-02-27 01:39:00,0.0,1.9804,0.0012,407.41,0.30,-1.0,0.0,138.10,28.64,24.65,36.39,0.04,-272.75,-272.75,-48,555,-930,22.4,0.8,-39.2,22.4,0.8,-38.8,5.73,2.37,-35.5,27.7
2013-02-27 01:40:00,0.0,1.9812,0.0010,407.53,0.31,-1.0,0.0,138.10,28.64,24.64,36.38,0.04,-272.75,-272.76,-48,555,-930,22.4,0.7,-39.5,22.4,0.8,-38.9,5.73,2.38,-35.5,27.8
2013-02-27 01:41:00,0.0,1.9805,0.0010,407.44,0.25,-1.0,0.0,138.10,28.63,24.65,36.38,0.04,-272.75,-272.75,-48,555,-930,22.4,0.7,-39.5,22.4,0.7,-39.2,5.73,2.38,-35.4,27.8
2013-02-27 01:42:00,0.0,1.9809,0.0009,407.47,0.28,-1.0,0.0,138.10,28.63,24.65,36.38,0.04,-272.75,-272.75,-48,555,-930,22.4,0.7,-39.8,22.4,0.8,-39.1,5.73,2.38,-35.4,27.8
2013-02-27 01:43:00,0.0,1.9808,0.0011,407.54,0.30,-1.0,0.0,138.10,28.63,24.65,36.38,0.04,-272.76,-272.75,-48,555,-930,22.4,0.7,-39.9,22.5,0.7,-39.3,5.73,2.39,-35.4,27.7
2013-02-27 01:44:00,0.0,1.9812,0.0011,407.47,0.22,-1.0,0.0,138.10,28.64,24.64,36.38,0.04,-272.75,-272.75,-48,555,-931,22.4,0.7,-40.0,22.4,0.7,-39.6,5.73,2.38,-35.4,27.8
2013-02-27 01:45:00,0.0,1.9809,0.0010,407.50,0.28,-1.0,0.0,138.10,28.64,24.64,36.38,0.04,-272.75,-272.75,-48,555,-930,22.4,0.7,-40.2,22.5,0.7,-39.7,5.73,2.38,-35.4,27.8
2013-02-27 01:46:00,0.0,1.9803,0.0011,407.50,0.31,-1.0,0.0,138.10,28.64,24.64,36.38,0.04,-272.75,-272.75,-48,555,-930,22.5,0.7,-40.2,22.5,0.7,-39.9,5.73,2.38,-35.4,27.8
2013-02-27 01:47:00,0.0,1.9801,0.0011,407.46,0.27,-1.0,0.0,138.10,28.65,24.65,36.39,0.04,-272.76,-272.75,-48,555,-930,22.5,0.7,-40.2,22.4,0.7,-39.9,5.73,2.38,-35.3,27.8
2013-02-27 01:48:00,0.0,1.9803,0.0011,407.34,0.29,-1.0,0.0,138.10,28.65,24.65,36.38,0.04,-272.76,-272.75,-48,555,-930,22.5,0.6,-40.6,22.5,0.7,-39.9,5.73,2.39,-35.4,27.8
2013-02-27 01:49:00,0.0,1.9798,0.0010,407.35,0.29,-1.0,0.0,138.10,28.65,24.65,36.39,0.04,-272.75,-272.76,-48,556,-931,22.5,0.6,-40.6,22.5,0.7,-39.9,5.73,2.38,-35.3,27.8
2013-02-27 01:50:00,0.0,1.9805,0.0011,407.26,0.32,-1.0,0.0,138.10,28.65,24.64,36.39,0.04,-272.75,-272.75,-48,555,-931,22.5,0.6,-40.7,22.5,0.7,-40.2,5.73,2.38,-35.3,27.8
2013-02-27 01:51:00,0.0,1.9804,0.0010,407.28,0.29,-1.0,0.0,138.10,28.65,24.65,36.39,0.04,-272.75,-272.75,-48,556,-931,22.5,0.6,-40.6,22.5,0.7,-40.3,5.73,2.38,-35.3,27.8
2013-02-27 01:52:00,0.0,1.9801,0.0013,407.19,0.29,-1.0,0.0,138.10,28.65,24.65,36.39,0.04,-272.75,-272.75,-48,556,-930,22.5,0.6,-40.6,22.5,0.7,-40.3,5.73,2.37,-35.3,27.8
2013-02-27 01:53:00,0.0,1.9792,0.0010,407.30,0.28,-1.0,0.0,138.10,28.66,24.65,36.38,0.04,-272.75,-272.75,-48,555,-930,22.5,0.6,-40.7,22.5,0.7,-40.0,5.73,2.38,-35.3,27.9
2013-02-27 01:54:00,0.0,1.9794,0.0011,407.34,0.27,-1.0,0.0,138.10,28.66,24.64,36.38,0.04,-272.75,-272.75,-48,556,-930,22.5,0.7,-40.4,22.5,0.7,-39.9,5.73,2.38,-35.3,27.9
2013-02-27 01:55:00,0.0,1.9795,0.0011,407.38,0.26,-1.0,0.0,138.10,28.66,24.65,36.38,0.04,-272.75,-272.75,-48,556,-930,22.5,0.7,-40.3,22.5,0.7,-39.9,5.73,2.37,-35.3,27.8
2013-02-27 01:56:00,0.0,1.9789,0.0011,407.41,0.30,-1.0,0.0,138.10,28.66,24.65,36.38,0.04,-272.75,-272.75,-48,556,-931,22.5,0.7,-40.1,22.5,0.7,-39.6,5.73,2.37,-35.3,27.9
2013-02-27 01:57:00,0.0,1.9799,0.0011,407.48,0.31,-1.0,0.0,138.10,28.66,24.65,36.38,0.04,-272.75,-272.76,-48,556,-931,22.5,0.7,-39.8,22.5,0.7,-39.5,5.73,2.36,-35.3,27.9
2013-02-27 01:58:00,0.0,1.9797,0.0011,407.42,0.24,-1.0,0.0,138.10,28.67,24.64,36.39,0.04,-272.75,-272.75,-48,556,-931,22.5,0.7,-39.8,22.5,0.7,-39.2,5.73,2.37,-35.3,27.9
2013-02-27 01:59:00,0.0,1.9805,0.0012,407.33,0.35,-1.0,0.0,138.10,28.67,24.65,36.39,0.04,-272.75,-272.75,-48,556,-930,22.5,0.7,-39.5,22.5,0.7,-39.1,5.73,2.37,-35.3,27.9
2013-02-27 02:00:00,0.0,1.9814,0.0013,407.36,0.29,-1.0,0.0,138.10,28.67,24.65,36.39,0.04,-272.76,-272.75,-48,556,-930,22.5,0.7,-39.4,22.6,0.8,-38.9,5.73,2.37,-35.2,27.9
2013-02-27 02:01:00,0.0,1.9817,0.0010,407.50,0.29,-1.0,0.0,138.10,28.67,24.65,36.38,0.04,-272.75,-272.75,-48,556,-930,22.5,0.7,-39.1,22.6,0.8,-38.8,5.73,2.37,-35.2,27.9
2013-02-27 02:02:00,0.0,1.9812,0.0009,407.34,0.26,-1.0,0.0,138.10,28.67,24.65,36.39,0.04,-272.75,-272.75,-48,556,-930,22.5,0.7,-39.4,22.6,0.8,-38.8,5.73,2.36,-35.2,27.9
2013-02-27 02:03:00,0.0,1.9817,0.0010,407.44,0.29,-1.0,0.0,138.10,28.68,24.65,36.38,0.04,-272.75,-272.75,-48,556,-931,22.5,0.7,-39.6,22.6,0.7,-39.2,5.73,2.37,-35.2,27.9
2013-02-27 02:04:00,0.0,1.9824,0.0011,407.46,0.29,-1.0,0.0,138.10,28.68,24.64,36.39,0.04,-272.75,-272.75,-48,556,-931,22.5,0.7,-39.5,22.6,0.7,-39.1,5.73,2.36,-35.2,27.9
2013-02-27 02:05:00,0.0,1.9824,0.0011,407.47,0.28,-1.0,0.0,138.10,28.68,24.64,36.38,0.04,-272.75,-272.75,-48,556,-931,22.5,0.7,-39.4,22.6,0.7,-39.2,5.73,2.36,-35.2,27.9
2013-02-27 02:06:00,0.0,1.9816,0.0010,407.43,0.28,-1.0,0.0,138.10,28.68,24.65,36.38,0.04,-272.75,-272.75,-48,556,-930,22.6,0.7,-39.4,22.6,0.7,-39.1,5.73,2.37,-35.2,27.9
2013-02-27 02:07:00,0.0,1.9815,0.0008,407.33,0.30,-1.0,0.0,138.10,28.68,24.65,36.40,0.04,-272.75,-272.76,-48,556,-930,22.6,0.7,-39.4,22.6,0.8,-38.8,5.73,2.37,-35.2,27.9
2013-02-27 02:08:00,0.0,1.9821,0.0010,407.34,0.24,-1.0,0.0,138.10,28.68,24.65,36.39,0.04,-272.75,-272.75,-48,556,-930,22.5,0.7,-39.1,22.6,0.8,-38.8,5.73,2.37,-35.2,27.9
2013-02-27 02:09:00,0.0,1.9823,0.0011,407.42,0.30,-1.0,0.0,138.10,28.68,24.64,36.39,0.04,-272.75,-272.75,-48,556,-931,22.6,0.7,-39.1,22.6,0.8,-38.7,5.73,2.37,-35.2,27.9
2013-02-27 02:10:00,0.0,1.9823,0.0009,407.48,0.27,-1.0,0.0,138.10,28.68,24.65,36.38,0.04,-272.75,-272.76,-48,556,-931,22.6,0.7,-39.2,22.6,0.8,-38.7,5.73,2.37,-35.2,27.9
2013-02-27 02:11:00,0.0,1.9823,0.0010,407.50,0.30,-1.0,0.0,138.10,28.68,24.64,36.38,0.04,-272.75,-272.75,-48,556,-931,22.5,0.8,-39.0,22.6,0.8,-38.7,5.73,2.38,-35.2,27.9
2013-02-27 02:12:00,0.0,1.9818,0.0009,407.52,0.31,-1.0,0.0,138.10,28.69,24.65,36.38,0.04,-272.75,-272.75,-48,556,-930,22.6,0.7,-39.1,22.6,0.8,-38.8,5.73,2.38,-35.1,27.9
2013-02-27 02:13:00,0.0,1.9817,0.0011,407.51,0.31,-1.0,0.0,138.10,28.69,24.65,36.39,0.04,-272.75,-272.76,-48,556,-930,22.6,0.8,-39.0,22.6,0.8,-38.8,5.73,2.38,-35.1,27.9
2013-02-27 02:14:00,0.0,1.9813,0.0010,407.48,0.28,-1.0,0.0,138.10,28.69,24.65,36.39,0.04,-272.75,-272.75,-48,556,-930,22.6,0.7,-39.1,22.6,0.8,-38.7,5.73,2.38,-35.1,27.9
2013-02-27 02:15:00,0.0,1.9810,0.0010,407.35,0.27,-1.0,0.0,138.10,28.69,24.65,36.39,0.04,-272.75,-272.75,-48,556,-931,22.6,0.7,-39.1,22.6,0.8,-38.6,5.73,2.38,-35.1,27.9
2013-02-27 02:16:00,0.0,1.9811,0.0010,407.48,0.28,-1.0,0.0,138.10,28.70,24.64,36.38,0.04,-272.75,-272.75,-48,556,-931,22.6,0.7,-39.1,22.6,0.8,-38.4,5.73,2.38,-35.1,27.9
2013-02-27 02:17:00,0.0,1.9808,0.0010,407.46,0.27,-1.0,0.0,138.10,28.70,24.65,36.39,0.04,-272.75,-272.75,-48,556,-931,22.6,0.8,-38.8,22.7,0.8,-38.4,5.73,2.38,-35.1,27.9
2013-02-27 02:18:00,0.0,1.9811,0.0011,407.49,0.30,-1.0,0.0,138.10,28.70,24.65,36.39,0.04,-272.75,-272.75,-48,556,-930,22.6,0.8,-38.7,22.7,0.8,-38.4,5.73,2.38,-35.1,27.9